Weather in Dubovoye

Russia / Tambov Oblast     52°36′32″N   40°17′59″E
temp.,
°C
wind,
m/s
gust,
m/s
humid.,
%
clouds,
%
prec.,
mm/h
press.,
hPa
HPBL,
m
3 march, wed
wed300:00−1nw5109592 0.3 1010360
03:00−3nw5119563 0.3 1011323
06:00−2nw6139490 0.1 1012647
09:00−3nnw7128891 0.1 1015775
12:00−3nnw6108471 0.0 1016767
15:00−2nw6108245 0.0 1017879
18:00−4w489013 0.0 1017182
21:00−2w5119356 0.1 1017589
4 march, thu
thu400:00−2w61288100 0.1 1015587
03:00−1w61288100 0.1 1013686
06:00−2wsw71491100 0.0 1011467
09:00−1wsw8158894 0.0 1010514
12:00+1wsw8158397 0.0 1008716
15:00+1wsw7148587 0.0 1006786
18:00+1wsw6158592 0.0 1004625
21:00+1wsw6139695 0.1 1002535
5 march, fri
fri500:00+1wsw61398100 0.4 1001478
03:00+1wsw61298100 1.1 1001466
06:000w71396100 0.4 1001597
09:000wnw51098100 0.8 1004566
12:00−1nnw4589100 0.1 1007571
15:00−1n4584100 0.2 1009676
18:00−3nne2490100 0.1 1010203
21:00−4nne3591100 0.1 1012254
6 march, sat
sat600:00−6n3491100 0.0 1013178
03:00−7n239271 0.0 101496
06:00−7nnw239166 0.0 101577
09:00−7nnw358936 0.0 1015254
12:00−5nw35810 0.0 1016432
15:00−4nw34773 0.0 1016597
18:00−6nnw23850 0.0 101647
21:00−7n128717 0.0 101740
7 march, sun
sun700:00−8nw128832 0.0 101722
03:00−8wsw349342 0.0 1017111
06:00−8sw510890 0.0 1015342
09:00−6sw7147333 0.0 1013890
12:00−3sw91663100 0.0 10101126
15:00−1sw10176499 0.0 10071270
18:00−1wsw91872100 0.0 10041241
21:00−1wsw91780100 0.0 10021022